sat.trackr.live / text

‹ back to catalog

STARLINK-32175

NORAD 60339 · 2024-136L

PAYLOAD ACTIVE UNKNOWN

§ Identity

Operator
Country
US
Launch date
2024-08-02
Launch site
AFETR
Launch vehicle
Mass (kg)
RCS (m²)

Purposes: comms

External: N2YO · Heavens-Above · Gunter

§ Orbital elements

Epoch: 2026-05-25T02:30:54.468576Z

Period
94.11 min
Inclination
53.1609°
Eccentricity
0.0001250
Mean motion
15.30197667 rev/d
Perigee alt
474.4 km
Apogee alt
476.1 km
Semi-major
6,853.4 km
B*
4.5978e-5
RAAN
80.7553°
Arg perigee
85.3772°
Mean anomaly
274.7372°
Rev number
10,136

§ Raw data

STARLINK-321751 60339U 24136L   26145.10479709  .00001003  00000+0  45978-4 0  99922 60339  53.1609  80.7553 0001250  85.3772 274.7372 15.30197667101363

JSON: /api/v1/satellites/60339 · /tle

For live sub-satellite position, see the globe view (requires WebGL).

§ Visibility from observer

Set your observer location to see the next 7 days of passes ≥ 10°. The values pass through the URL so the page stays shareable.

No JS? Fill the form by hand. The geolocation button needs JavaScript.